EW6329 Weather Reports


Display with metric or nautical units.
time (UTC)temp
F
wind
direction
speed
MPH
gust
MPH
rain 1hr
in
rain 24hr
in
rain mn
in
humidity
%
barometer
mb
20260904213018 99 276 0.0 2.0 0.00 0.00 0.00 43 1010.0
20260904211531 98 276 0.0 2.0 0.00 0.00 0.00 44 1010.2
20260904210044 98 276 0.0 2.0 0.00 0.00 0.00 41 1010.4
20260904204556 98 276 0.0 2.0 0.00 0.00 0.00 44 1010.6
20260904203007 98 276 0.0 2.0 0.00 0.00 0.00 44 1010.9
20260904201519 98 276 0.0 2.0 0.00 0.00 0.00 41 1011.0
20260904200032 98 276 0.0 2.0 0.00 0.00 0.00 43 1011.3
20260904194545 97 276 0.0 3.0 0.00 0.00 0.00 45 1011.5
20260904193059 97 276 0.0 2.0 0.00 0.00 0.00 42 1011.9
20260904191509 97 276 0.0 3.0 0.00 0.00 0.00 45 1012.1
20260904190035 98 276 0.0 2.0 0.00 0.00 0.00 46 1012.1
20260904184536 97 276 0.0 2.0 0.00 0.00 0.00 46 1012.4
20260904183103 97 276 0.0 2.0 0.00 0.00 0.00 49 1012.5
20260904181559 97 276 0.0 2.0 0.00 0.00 0.00 48 1012.8
20260904180008 96 276 0.0 2.0 0.00 0.00 0.00 49 1013.0
20260904174522 95 269 0.0 2.0 0.00 0.00 0.00 50 1013.1
20260904173032 94 269 0.0 0.0 0.00 0.00 0.00 52 1013.3
20260904171545 94 269 0.0 2.0 0.00 0.00 0.00 54 1013.5
20260904170057 93 306 0.0 2.0 0.00 0.00 0.00 57 1013.6
20260904164506 92 292 0.0 2.0 0.00 0.00 0.00 57 1013.7
20260904163020 91 294 0.0 2.0 0.00 0.00 0.00 60 1013.9
20260904161532 90 277 0.0 2.0 0.00 0.00 0.00 59 1013.9
20260904160053 90 324 0.0 3.0 0.00 0.00 0.00 62 1014.0
20260904154558 88 314 0.0 2.0 0.00 0.00 0.00 65 1014.0
20260904153007 88 315 1.0 3.0 0.00 0.00 0.00 66 1014.0
20260904151521 87 299 0.0 2.0 0.00 0.00 0.00 68 1013.9
20260904150029 85 299 0.0 1.0 0.00 0.00 0.00 72 1013.8
20260904144543 84 298 1.0 3.0 0.00 0.00 0.00 73 1013.7
20260904143051 82 290 0.0 2.0 0.00 0.00 0.00 78 1013.7
20260904141502 80 290 0.0 0.0 0.00 0.00 0.00 84 1013.6
20260904140016 79 290 0.0 2.0 0.00 0.00 0.00 86 1013.7
20260904134531 78 290 0.0 0.0 0.00 0.00 0.00 89 1013.5
20260904133042 77 292 0.0 0.0 0.00 0.00 0.00 90 1013.5
20260904131555 76 292 0.0 0.0 0.00 0.00 0.00 90 1013.5
20260904130005 76 292 0.0 0.0 0.00 0.00 0.00 90 1013.5
20260904124522 76 292 0.0 0.0 0.00 0.00 0.00 89 1013.3
20260904123032 76 292 0.0 0.0 0.00 0.00 0.00 89 1013.2
20260904121545 75 292 0.0 0.0 0.00 0.00 0.00 89 1013.1
20260904120111 75 292 0.0 0.0 0.00 0.00 0.00 89 1012.9
20260904114509 75 292 0.0 0.0 0.00 0.00 0.00 89 1012.7
20260904113022 76 292 0.0 0.0 0.00 0.00 0.00 89 1012.6
20260904111535 76 292 0.0 0.0 0.00 0.00 0.00 88 1012.5
20260904110053 76 292 0.0 0.0 0.00 0.00 0.00 88 1012.4
20260904104604 76 292 0.0 0.0 0.00 0.00 0.00 88 1012.4
20260904103012 76 292 0.0 0.0 0.00 0.00 0.00 88 1012.3
20260904101527 76 292 0.0 0.0 0.00 0.00 0.00 88 1012.3
20260904100038 76 292 0.0 0.0 0.00 0.00 0.00 88 1012.2
20260904094552 77 292 0.0 0.0 0.00 0.00 0.00 87 1012.1
20260904093002 77 292 0.0 0.0 0.00 0.00 0.00 87 1012.1
20260904091520 77 292 0.0 0.0 0.00 0.00 0.00 86 1011.9
20260904090032 77 292 0.0 0.0 0.00 0.00 0.00 85 1011.9
20260904084540 77 292 0.0 0.0 0.00 0.00 0.00 85 1011.8
20260904083056 78 292 0.0 0.0 0.00 0.00 0.00 84 1011.7
20260904081506 78 292 0.0 0.0 0.00 0.00 0.00 84 1011.7
20260904080019 78 292 0.0 0.0 0.00 0.00 0.00 84 1011.6
20260904074531 78 292 0.0 0.0 0.00 0.00 0.00 84 1011.5
20260904073043 78 292 0.0 0.0 0.00 0.00 0.00 84 1011.7
20260904071556 79 292 0.0 0.0 0.00 0.00 0.00 83 1011.8
20260904070014 79 292 0.0 0.0 0.00 0.00 0.00 83 1011.7
20260904064519 79 292 0.0 2.0 0.00 0.00 0.00 82 1011.7
20260904063037 79 292 0.0 0.0 0.00 0.00 0.00 80 1011.7
20260904061550 80 292 0.0 0.0 0.00 0.00 0.00 79 1011.8
20260904060057 80 292 0.0 0.0 0.00 0.00 0.00 79 1011.6
20260904054517 80 292 0.0 0.0 0.00 0.00 0.00 78 1011.7
20260904053020 81 292 0.0 0.0 0.00 0.00 0.00 78 1011.7
20260904051535 81 292 0.0 0.0 0.00 0.00 0.00 78 1011.8
20260904050046 81 292 0.0 0.0 0.00 0.00 0.00 77 1011.8
20260904044601 82 292 0.0 0.0 0.00 0.00 0.00 77 1011.9
20260904043010 82 291 0.0 0.0 0.00 0.00 0.00 75 1011.8
20260904041522 82 290 0.0 0.0 0.00 0.00 0.00 74 1011.9
20260904040034 82 290 0.0 0.0 0.00 0.00 0.00 74 1011.9
20260904034547 83 290 0.0 0.0 0.00 0.00 0.00 73 1011.9
20260904033100 83 290 0.0 0.0 0.00 0.00 0.00 74 1012.0
20260904031512 84 290 0.0 0.0 0.00 0.00 0.00 72 1012.1
20260904030025 84 290 0.0 0.0 0.00 0.00 0.00 72 1012.1
20260904024536 85 290 0.0 0.0 0.00 0.00 0.00 70 1012.0
20260904023050 86 290 0.0 0.0 0.00 0.00 0.00 68 1011.9
20260904021605 86 290 0.0 0.0 0.00 0.00 0.00 66 1011.7
20260904020013 87 290 0.0 0.0 0.00 0.00 0.00 65 1011.7
20260904014526 88 290 0.0 0.0 0.00 0.00 0.00 63 1011.4
20260904013044 88 290 0.0 0.0 0.00 0.00 0.00 62 1011.2
20260904011554 89 290 0.0 0.0 0.00 0.00 0.00 60 1011.2
20260904010005 90 290 0.0 0.0 0.00 0.00 0.00 59 1011.0
20260904004516 90 290 0.0 0.0 0.00 0.00 0.00 58 1011.0
20260904003029 91 290 0.0 0.0 0.00 0.00 0.00 58 1011.1
20260904001540 91 290 0.0 0.0 0.00 0.00 0.00 57 1011.0
20260904000053 92 290 0.0 0.0 0.00 0.00 0.00 56 1010.9
20260903234510 92 290 0.0 0.0 0.00 0.00 0.00 55 1010.9
20260903233017 93 290 0.0 0.0 0.00 0.00 0.00 55 1010.8
20260903231531 93 290 0.0 0.0 0.00 0.00 0.00 54 1010.7
20260903230047 94 290 0.0 0.0 0.00 0.00 0.00 53 1010.6
20260903224555 95 290 0.0 0.0 0.00 0.00 0.00 51 1010.6
20260903223004 95 290 0.0 0.0 0.00 0.00 0.00 51 1010.4
20260903221519 95 290 0.0 2.0 0.00 0.00 0.00 49 1010.5
20260903220036 94 290 0.0 1.0 0.00 0.00 0.00 51 1010.4
20260903214546 95 290 0.0 2.0 0.00 0.00 0.00 49 1010.4